Location: Asheville, NC
(35.6000°N, 82.5500°W)
Time: 22:51:57

Oscar 11 - Pass Details

Date: 18 March 2018
Orbit: 613 x 626 km, 97.7° (Epoch: 18 March)

Event Time Altitude Azimuth Distance (km) Brightness Sun altitude
Exits shadow 21:32:20 17° 190° (S) 1,550 9.0 -23.3°
Maximum altitude 21:35:24 49° 261° (W) 793 7.9 -23.9°
Drops below altitude 10° 21:39:34 10° 336° (NNW) 1,975 10.2 -24.7°
Sets 21:41:49 0° 342° (NNW) 2,885 11.0 -25.1°
